Location: ???????
(55.4362°N, 38.1183°E)
Time: 18:54:21
(UTC+00:00)

Cosmos 1932 - Pass Details

Date: 26 October 2021
Orbit: 943 x 987 km, 65.0° (Epoch: 28 November)

Event Time Altitude Azimuth Distance (km) Brightness Sun altitude
Rises 16:36:54 0° 312° (NW) 3,620 8.4 -22.5°
Reaches altitude 10° 16:39:41 10° 303° (WNW) 2,674 7.7 -22.9°
Maximum altitude 16:45:04 32° 243° (WSW) 1,582 6.0 -23.6°
Drops below altitude 10° 16:50:29 10° 183° (S) 2,680 6.7 -24.4°
Enters shadow 16:52:16 - 177° (S) 3,273 7.1 -24.6°
